Simultaneous Nadir Overpasses (SNOs) Predictions

Prediction of SNOs between METOP-B and TERRA Satellite Orbit:

Table of predicted SNOs for the next 14.0 days since TLE Epoch: 4/26/2014
Index Date (METOP-B) Time (METOP-B) Lat,Lon (METOP-B) SZA (METOP-B ) Date (TERRA) Time (TERRA) Lat,Lon (TERRA) SZA (TERRA ) Distance(km) Time Diff (sec)
1 04/27/2014 21:17:26 -81.32, 88.03 109.76 04/27/2014 21:18:21 -81.32, 88.12 109.72 1.70 55
2 04/27/2014 22:08:05 81.32,-104.22 70.29 04/27/2014 22:07:48 81.31,-104.40 70.25 3.18 17
3 04/30/2014 16:51:44 -81.32, 154.51 110.61 04/30/2014 16:52:34 -81.32, 154.61 110.57 2.00 50
4 04/30/2014 17:42:23 81.32, -37.74 69.44 04/30/2014 17:42:01 81.31, -37.94 69.40 3.34 22
5 05/03/2014 12:26:03 -81.32,-139.08 111.44 05/03/2014 12:26:50 -81.32,-139.12 111.42 0.78 47
6 05/
